Home   Weather   Bytom   Past weeks

Flag for Poland Past Weather in Bytom, Poland — Yesterday and Last 2 Weeks

Now
28 °F

Partly sunny.


Feels Like: 20 °F
Forecast: 18 / 21 °F
Wind: 8 mph from Northeast

Location: Katowice Airport

Current Time: Jan 17, 2017 at 12:12:35 pm

Latest Report: Jan 17, 2017 at 11:30 am


Visibility: 4 mi

Pressure: 30.45 "Hg

Humidity: 86%

Dew Point: 25 °F

Location of BytomLocation

Past Weather in Bytom — Graph

°F

Bytom Temperature Yesterday

Maximum temperature yesterday: 28 °F (at 12:00 am)
Minimum temperature yesterday: 23 °F (at 11:30 pm)
Average temperature yesterday: 27 °F

High & Low Weather Summary for the Past Weeks

 TemperatureHumidityPressure
High39 °F (Jan 13, 11:30 am)100% (Jan 2, 3:00 pm)30.57 "Hg (Jan 2, 3:00 pm)
Low-20 °F (Jan 7, 7:00 am)46% (Jan 9, 2:00 pm)29.30 "Hg (Jan 13, 2:00 pm)
Average19 °F83%29.98 "Hg
* Reported Jan 2 11:00 am — Jan 17 11:00 am, Bytom, Weather by CustomWeather, © 2017

Note: Actual official high and low records may vary slightly from our data, if they occured in-between our weather recording intervals... More about our weather records

Advertising

Bytom Weather History for the Previous 24 Hours

Scroll right to see more
 ConditionsComfort  
Time TempWeatherWind HumidityBarometerVisibility
11:00 am
Tue, Jan 17
27 °FIce fog.8 mph93%30.45 "Hg3 mi
10:30 am27 °FIce fog.9 mph93%30.45 "Hg3 mi
10:00 am27 °FIce fog.7 mph93%30.42 "Hg3 mi
9:30 am27 °FIce fog.7 mph86%30.42 "Hg3 mi
9:00 am27 °FBroken clouds.8 mph93%30.42 "Hg4 mi
8:30 am27 °FLow clouds.6 mph93%30.42 "Hg4 mi
8:00 am27 °FIce fog.6 mph93%30.39 "Hg2 mi
7:30 am27 °FIce fog.9 mph93%30.39 "Hg1 mi
7:00 am25 °FIce fog.3 mph100%30.39 "Hg2 mi
6:30 am25 °FIce fog.2 mph100%30.36 "Hg2 mi
6:00 am25 °FIce fog.3 mph100%30.36 "Hg2 mi
5:30 am25 °FIce fog.5 mph100%30.36 "Hg2 mi
5:00 am25 °FIce fog.5 mph100%30.36 "Hg2 mi
4:30 am25 °FIce fog.5 mph100%30.33 "Hg1 mi
4:00 am25 °FIce fog.2 mph100%30.33 "Hg1 mi
3:30 am25 °FIce fog.1 mph93%30.33 "Hg0 mi
3:00 am25 °FIce fog.No wind93%30.33 "Hg0 mi
2:30 am25 °FIce fog.1 mph93%30.33 "Hg0 mi
2:00 am25 °FIce fog.2 mph93%30.30 "Hg1 mi
1:30 am25 °FIce fog.5 mph93%30.30 "Hg1 mi
1:00 am23 °FIce fog.2 mph93%30.30 "Hg2 mi
12:30 am23 °FIce fog.5 mph93%30.27 "Hg2 mi
12:00 am23 °FIce fog.7 mph93%30.27 "Hg2 mi
11:30 pm
Mon, Jan 16
23 °FCold.5 mph93%30.27 "Hg1 mi
11:00 pm25 °FIce fog.5 mph93%30.27 "Hg1 mi
10:30 pm25 °FIce fog.2 mph86%30.27 "Hg2 mi
10:00 pm25 °FIce fog.1 mph93%30.24 "Hg2 mi
9:30 pm25 °FIce fog.2 mph93%30.24 "Hg3 mi
9:00 pm27 °FIce fog.1 mph86%30.24 "Hg2 mi
8:30 pm27 °FIce fog.3 mph86%30.21 "Hg2 mi
8:00 pm27 °FIce fog.1 mph86%30.21 "Hg3 mi
7:30 pm27 °FOvercast.2 mph86%30.21 "Hg4 mi
7:00 pm27 °FIce fog.3 mph86%30.18 "Hg3 mi
6:30 pm27 °FMostly cloudy.3 mph86%30.18 "Hg4 mi
6:00 pm27 °FOvercast.2 mph93%30.18 "Hg5 mi
5:30 pm28 °FMostly cloudy.1 mph80%30.18 "Hg4 mi
5:00 pm28 °FOvercast.3 mph80%30.15 "Hg5 mi
4:30 pm28 °FOvercast.3 mph80%30.15 "HgN/A
4:00 pm27 °FPartly sunny.2 mph86%30.15 "HgN/A
3:30 pm28 °FPartly sunny.2 mph80%30.15 "HgN/A
3:00 pm28 °FPartly sunny.2 mph80%30.12 "HgN/A
2:30 pm28 °FPartly sunny.2 mph80%30.12 "HgN/A
2:00 pm28 °FPartly sunny.3 mph80%30.12 "Hg5 mi
1:30 pm28 °FOvercast.5 mph80%30.12 "Hg4 mi
1:00 pm28 °FMostly cloudy.2 mph86%30.12 "HgN/A
12:30 pm28 °FOvercast.5 mph86%30.12 "HgN/A
12:00 pm28 °FMore clouds than sun.7 mph86%30.12 "Hg4 mi
Weather by CustomWeather, © 2017

See weather overviewHow to use our weather pages